BILBAO/SONDICA current weather conditions

sailwx.info

Last reported at 2017-Dec-08 14:51 UTC.
Time now 2017-Dec-18 05:03 UTC

Location: N 43°18' W 002°56'.
View on Google Maps.

See reports from other nearby stations

  
Tides and Currents Weather Stations Pressure Air Temp Water Temp Dewpoint Dewpoint Depression Visibility Wind Speed Wind Dir Waves Ship Positions
date/time (UTC)wind fromknots sea level pressurealtimeterstation pressurevisibilityair tempwater tempwave heightnotes
2017-Dec-18 04:00 100 2 5.4 4.0
2017-Dec-18 03:30 100 2 2.4 4.0 Mist.
2017-Dec-18 03:00 120 1 2.3 4.0 Mist.
2017-Dec-18 02:30 090 1 2.7 5.0 Mist.
2017-Dec-18 02:00 100 1 1.9 4.0 Mist.
2017-Dec-18 01:30 120 1 0.6 4.0 Mist.
2017-Dec-18 01:00 100 2 2.2 5.0 Mist.
2017-Dec-18 00:30 100 0 2.4 5.0 Mist.
2017-Dec-18 00:00 090 0 2.2 5.0 Mist.
2017-Dec-17 23:30 2.1 6.0 Mist.
2017-Dec-17 23:00 100 0 3.2 6.0
2017-Dec-17 22:30 5.4 7.0
2017-Dec-17 22:00 110 2 5.4 7.0
2017-Dec-17 21:30 5.4 7.0
2017-Dec-17 21:00 5.4 7.0
2017-Dec-17 20:30 5.4 7.0
2017-Dec-17 20:00 5.4 7.0
2017-Dec-17 19:30 5.4 7.0
2017-Dec-17 19:00 120 1 5.4 8.0
2017-Dec-17 18:30 5.4 7.0
2017-Dec-17 18:00 110 2 5.4 8.0
2017-Dec-17 17:30 5.4 8.0
2017-Dec-17 17:00 5.4 8.0
2017-Dec-17 16:30 5.4 8.0
2017-Dec-17 16:00 5.4 9.0
2017-Dec-17 15:30 310 0 5.410.0
2017-Dec-17 15:00 290 2 5.410.0
2017-Dec-17 14:30 300 6 5.410.0
2017-Dec-17 14:00 5.410.0
2017-Dec-17 13:30 5.410.0
2017-Dec-17 13:00 5.4 9.0
2017-Dec-17 12:30 5.4 9.0
2017-Dec-17 12:00 5.4 8.0 Light rain.
2017-Dec-17 11:30 160 0 5.4 8.0 Light rain.
2017-Dec-17 11:00 5.4 8.0 Light rain.
2017-Dec-17 10:30 5.4 7.0
2017-Dec-17 10:00 5.4 6.0
2017-Dec-17 09:30 5.4 6.0
2017-Dec-17 09:00 120 2 5.4 6.0
2017-Dec-17 08:30 130 2 5.4 4.0
2017-Dec-17 08:00 5.4 5.0
2017-Dec-17 07:30 5.4 5.0 Light rain.
2017-Dec-17 07:00 060 4 5.4 5.0 Light rain.
2017-Dec-17 06:30 5.4 5.0
2017-Dec-17 06:00 5.4 4.0
2017-Dec-17 05:30 5.4 5.0
2017-Dec-17 05:00 100 2 5.4 4.0
2017-Dec-17 04:30 5.4 5.0
2017-Dec-17 04:00 5.4 5.0
2017-Dec-17 03:30 2.7 5.0 Mist.
2017-Dec-17 03:00 080 2 3.2 5.0
2017-Dec-17 02:30 130 2 3.2 5.0
2017-Dec-17 02:00 050 0 4.3 6.0
2017-Dec-17 01:30 3.2 5.0
2017-Dec-17 01:00 140 2 2.7 5.0 Mist.
2017-Dec-17 00:30 120 2 3.2 5.0
2017-Dec-17 00:00 080 2 3.2 5.0
2017-Dec-16 23:30 110 4 3.2 5.0
2017-Dec-16 23:00 140 1 3.8 4.0
2017-Dec-16 22:30 100 2 5.4 5.0
2017-Dec-16 22:00 130 2 5.4 5.0
2017-Dec-16 21:30 080 2 5.4 5.0
2017-Dec-16 21:00 5.4 6.0
2017-Dec-16 20:30 080 5 5.4 6.0
2017-Dec-16 20:00 5.4 8.0
2017-Dec-16 19:30 5.4 6.0
2017-Dec-16 19:00 5.4 7.0
2017-Dec-16 18:30 020 2 5.4 7.0
2017-Dec-16 18:00 040 7 5.4 8.0 Light rain.
2017-Dec-16 17:30 5.4 7.0 Light rain.
2017-Dec-16 17:10 360 6 4.3 8.0 Light rain.
2017-Dec-16 17:02 3.2 7.0 Light rain showers.
2017-Dec-16 17:00 4.9 7.0
2017-Dec-16 16:30 5.4 8.0
2017-Dec-16 16:00 5.4 8.0
2017-Dec-16 15:30 5.4 9.0
2017-Dec-16 15:00 5.4 9.0
2017-Dec-16 14:30 4.3 9.0 Light rain.
2017-Dec-16 14:28 4.3 9.0 Light rain.
2017-Dec-16 14:20 250 4 5.410.0 Hail. Rain.
2017-Dec-16 14:00 280 2 5.4 9.0 Light rain.
2017-Dec-16 13:54 4.3 9.0 Light rain.
2017-Dec-16 13:44 310 6 1.6 9.0 Rain showers.
2017-Dec-16 13:41 300 6 5.4 9.0 Rain showers.
2017-Dec-16 13:30 290 4 5.410.0
2017-Dec-16 13:00 300 6 4.3 8.0 Light rain.
2017-Dec-16 12:52 300 6 4.9 8.0 Light rain.
2017-Dec-16 12:30 300 6 gusting 18 5.4 9.0 Rain showers.
2017-Dec-16 12:23 300 5 gusting 15 5.4 9.0 Rain showers.
2017-Dec-16 12:00 290 2 5.4 9.0 Light rain.
2017-Dec-16 11:30 4.3 9.0 Light rain.
2017-Dec-16 11:24 4.3 9.0 Light rain.
2017-Dec-16 11:15 3.2 8.0 Hail. Rain.
2017-Dec-16 11:00 5.4 8.0
2017-Dec-16 10:30 5.4 8.0
2017-Dec-16 10:00 160 1 4.3 8.0 Light rain.
2017-Dec-16 09:30 4.3 7.0 Light rain.
2017-Dec-16 09:00 4.9 7.0 Light rain.
2017-Dec-16 08:30 280 2 4.9 7.0
2017-Dec-16 08:13 340 6 4.9 8.0 Light rain.
2017-Dec-16 08:00 340 9 4.9 8.0 Thunderstorm. Light rain showers.
2017-Dec-16 07:54 340 9 4.9 8.0 Thunderstorm. Light rain showers.
2017-Dec-16 07:50 4.9 7.0 Thunderstorm. Rain showers.
2017-Dec-16 07:48 100 4 4.9 7.0 Light thunderstorm with rain.
2017-Dec-16 07:30 5.4 6.0 Light rain.
2017-Dec-16 07:00 4.3 7.0
2017-Dec-16 06:30 4.3 7.0 Light rain.
2017-Dec-16 06:22 4.3 7.0 Light rain.
2017-Dec-16 06:00 340 2 4.9 6.0 Light rain.
2017-Dec-16 05:42 340 6 gusting 17 3.8 7.0 Light rain showers.
2017-Dec-16 05:32 340 13 2.2 7.0 Hail. Mist.
2017-Dec-16 05:30 340 13 2.2 7.0 Hail. Mist.
2017-Dec-16 05:27 2.2 7.0 Hail.
2017-Dec-16 05:00 5.4 8.0